Terminal Aerodrome Forecast
Issued by NWS

Home | Current Version | Previous Version | Text Only | Print | Product List | Glossary On
Versions: 1 2 3 4 5 6 7 8 9 10 11 12 13 14 15 16 17 18 19 20 21 22 23 24 25 26 27 28 29 30 31 32 33 34 35 36 37 38 39 40 41 42 43 44 45 46 47 48 49 50
000
FTAK31 PANC 160013 AAA
TAFASN
TAF AMD
PASN 160013Z 1600/1624 24009KT P6SM FEW008 SCT015 OVC035
      TEMPO 1600/1604 BKN015
     FM160400 VRB06KT 6SM -SHRA SCT008 OVC015
     FM161400 36010KT P6SM VCSH SCT008 OVC015=

USA.gov is the U.S. government's official web portal to all federal, state and local government web resources and services.